Home > Weather > Norway > Verdalsøra > Past weeks

Flag for Norway Weather past 2 weeks in Verdalsøra, Norway

36 °F

Scattered showers. Partly cloudy.

Feels Like: 30 °F
Forecast: 36 / 41 °F
Wind: 7 mph from West

Location: Trondheim / Vaernes

Current Time: Dec 2, 2015 at 1:20:00 AM

Latest Report: Dec 2, 2015 at 12:20 AM

Visibility: N/A

Pressure: 29.83 "Hg

Humidity: 87%

Dew point: 32 °F

Location of VerdalsøraLocation

Historic Weather in Verdalsøra — Graph


Verdalsøra temperature yesterday

Maximum temperature yesterday: 39 °F (at 4:50 PM)
Minimum temperature yesterday: 34 °F (at 12:50 AM)
Average temperature yesterday: 36 °F

Past Weeks' High & Low Weather Summary

High50 °F (Nov 26, 8:50 PM)100% (Nov 17, 10:20 AM)29.83 "Hg (Nov 17, 10:20 AM)
Low25 °F (Nov 21, 6:50 AM)52% (Nov 28, 10:20 PM)28.74 "Hg (Nov 29, 7:20 PM)
Average34 °F86%29.34 "Hg
* Reported Nov 16 11:20 PM — Dec 1 11:50 PM, Verdalsøra, Weather by CustomWeather, © 2015

Note: Actual official high and low records may vary slightly from our data, if they occured in-between our weather recording intervals... More about our weather records


Verdalsøra weather history for previous 24 hours

Time TempWeatherWind HumidityBarometerVisibility
11:50 PM
Tue, Dec 1
36 °FScattered showers. Partly cloudy.5 mph93%29.83 "HgN/A
11:20 PM36 °FScattered showers. Partly cloudy.12 mph87%29.83 "HgN/A
10:50 PM36 °FPartly cloudy.14 mph87%29.83 "HgN/A
10:20 PM37 °FPartly cloudy.12 mph81%29.80 "HgN/A
9:50 PM37 °FPartly cloudy.18 mph81%29.80 "HgN/A
9:20 PM37 °FPartly cloudy.14 mph81%29.80 "HgN/A
8:50 PM37 °FPartly cloudy.9 mph87%29.77 "Hg5 mi
8:20 PM37 °FPartly cloudy.12 mph87%29.77 "HgN/A
7:50 PM37 °FPartly cloudy.12 mph87%29.74 "HgN/A
7:20 PM37 °FSprinkles. Passing clouds.14 mph81%29.74 "HgN/A
6:50 PM37 °FPartly cloudy.15 mph81%29.71 "HgN/A
6:20 PM37 °FPartly cloudy.15 mph87%29.71 "HgN/A
5:50 PM37 °FPassing clouds.12 mph81%29.71 "HgN/A
5:20 PM37 °FPassing clouds.14 mph87%29.68 "HgN/A
4:50 PM39 °FSprinkles. Passing clouds.15 mph75%29.65 "HgN/A
4:20 PM37 °FScattered showers. Passing clouds.20 mph81%29.65 "HgN/A
3:50 PM37 °FScattered showers. Partly cloudy.23 mph81%29.62 "HgN/A
3:20 PM37 °FScattered showers. Partly cloudy.21 mph87%29.59 "HgN/A
2:50 PM36 °FSprinkles. Partly cloudy.23 mph93%29.59 "Hg6 mi
2:20 PM36 °FSprinkles. Broken clouds.18 mph87%29.56 "Hg6 mi
1:50 PM36 °FLight rain. Light fog.24 mph87%29.56 "Hg5 mi
1:20 PM37 °FSprinkles. Broken clouds.15 mph81%29.53 "Hg6 mi
12:50 PM37 °FSprinkles. Partly sunny.17 mph75%29.53 "HgN/A
12:20 PM37 °FSprinkles. Partly sunny.20 mph81%29.50 "HgN/A
11:50 AM36 °FScattered showers. Partly sunny.16 mph87%29.50 "HgN/A
11:20 AM37 °FSprinkles. Partly sunny.18 mph75%29.50 "HgN/A
10:50 AM37 °FScattered showers. Scattered clouds.21 mph75%29.47 "HgN/A
10:20 AM37 °FPartly sunny.16 mph75%29.47 "HgN/A
9:50 AM36 °FBroken clouds.15 mph87%29.47 "HgN/A
7:50 AM36 °FPartly cloudy.15 mph81%29.42 "HgN/A
7:20 AM36 °FPartly cloudy.16 mph81%29.39 "HgN/A
6:50 AM36 °FSprinkles. Partly cloudy.18 mph87%29.39 "HgN/A
6:20 AM36 °FLight rain. Passing clouds.23 mph81%29.39 "HgN/A
5:50 AM36 °FPassing clouds.16 mph81%29.36 "HgN/A
4:50 AM36 °FPartly cloudy.17 mph81%29.33 "HgN/A
4:20 AM36 °FPassing clouds.17 mph81%29.30 "HgN/A
3:50 AM36 °FPassing clouds.17 mph81%29.30 "HgN/A
3:20 AM36 °FPassing clouds.21 mph81%29.27 "HgN/A
2:50 AM36 °FPassing clouds.18 mph81%29.27 "HgN/A
1:50 AM34 °FSnow flurries. Partly cloudy.2 mph93%29.24 "HgN/A
Weather by CustomWeather, © 2015

See weather overviewHow to use our weather pages